Time,TemperatureF,DewpointF,PressureIn,WindDirection,WindDirectionDegrees,WindSpeedMPH,WindSpeedGustMPH,Humidity,HourlyPrecipIn,Conditions,Clouds,dailyrainin,SoftwareType,DateUTC
2013-10-06 00:00:00,65.0,21.0,-100.00,North,10,2.0,-999.0,18,0.00,,,-99.99,,2013-10-06 07:00:00,
2013-10-06 00:42:00,65.0,21.0,-100.00,North,10,2.0,-999.0,18,0.00,,,-99.99,,2013-10-06 07:42:00,
2013-10-06 00:52:00,65.0,21.0,-100.00,North,10,2.0,-999.0,18,0.00,,,-99.99,,2013-10-06 07:52:00,
2013-10-06 01:00:00,71.0,19.0,-100.00,ENE,72,3.0,-999.0,13,0.00,,,-99.99,,2013-10-06 08:00:00,
2013-10-06 01:42:00,71.0,19.0,-100.00,ENE,72,3.0,-999.0,13,0.00,,,-99.99,,2013-10-06 08:42:00,
2013-10-06 01:52:00,71.0,19.0,-100.00,ENE,72,3.0,-999.0,13,0.00,,,-99.99,,2013-10-06 08:52:00,
2013-10-06 02:00:00,74.0,17.0,-100.00,East,86,9.0,-999.0,11,0.00,,,-99.99,,2013-10-06 09:00:00,
2013-10-06 02:43:00,74.0,17.0,-100.00,East,86,9.0,-999.0,11,0.00,,,-99.99,,2013-10-06 09:43:00,
2013-10-06 02:53:00,74.0,17.0,-100.00,East,86,9.0,-999.0,11,0.00,,,-99.99,,2013-10-06 09:53:00,
2013-10-06 03:00:00,73.0,17.0,-100.00,ESE,102,4.0,-999.0,12,0.00,,,-99.99,,2013-10-06 10:00:00,
2013-10-06 03:43:00,73.0,17.0,-100.00,ESE,102,4.0,-999.0,12,0.00,,,-99.99,,2013-10-06 10:43:00,
2013-10-06 03:53:00,73.0,17.0,-100.00,ESE,102,4.0,-999.0,12,0.00,,,-99.99,,2013-10-06 10:53:00,
2013-10-06 04:00:00,66.0,20.0,-100.00,East,80,6.0,-999.0,17,0.00,,,-99.99,,2013-10-06 11:00:00,
2013-10-06 04:42:00,66.0,20.0,-100.00,East,80,6.0,-999.0,17,0.00,,,-99.99,,2013-10-06 11:42:00,
2013-10-06 04:52:00,66.0,20.0,-100.00,East,80,6.0,-999.0,17,0.00,,,-99.99,,2013-10-06 11:52:00,
2013-10-06 05:00:00,69.0,20.0,-100.00,NE,48,6.0,-999.0,15,0.00,,,-99.99,,2013-10-06 12:00:00,
2013-10-06 05:42:00,69.0,20.0,-100.00,NE,48,6.0,-999.0,15,0.00,,,-99.99,,2013-10-06 12:42:00,
2013-10-06 05:52:00,69.0,20.0,-100.00,NE,48,6.0,-999.0,15,0.00,,,-99.99,,2013-10-06 12:52:00,
2013-10-06 06:00:00,69.0,20.0,-100.00,East,91,6.0,-999.0,15,0.00,,,-99.99,,2013-10-06 13:00:00,
2013-10-06 06:42:00,69.0,20.0,-100.00,East,91,6.0,-999.0,15,0.00,,,-99.99,,2013-10-06 13:42:00,
2013-10-06 06:52:00,69.0,20.0,-100.00,East,91,6.0,-999.0,15,0.00,,,-99.99,,2013-10-06 13:52:00,
2013-10-06 07:00:00,68.0,19.0,-100.00,East,81,4.0,-999.0,15,0.00,,,-99.99,,2013-10-06 14:00:00,
2013-10-06 07:42:00,68.0,19.0,-100.00,East,81,4.0,-999.0,15,0.00,,,-99.99,,2013-10-06 14:42:00,
2013-10-06 07:52:00,68.0,19.0,-100.00,East,81,4.0,-999.0,15,0.00,,,-99.99,,2013-10-06 14:52:00,
2013-10-06 08:00:00,72.0,20.0,-100.00,East,101,11.0,-999.0,14,0.00,,,-99.99,,2013-10-06 15:00:00,
2013-10-06 08:44:00,72.0,20.0,-100.00,East,101,11.0,-999.0,14,0.00,,,-99.99,,2013-10-06 15:44:00,
2013-10-06 08:54:00,72.0,20.0,-100.00,East,101,11.0,-999.0,14,0.00,,,-99.99,,2013-10-06 15:54:00,
2013-10-06 09:00:00,77.0,22.0,-100.00,ESE,102,8.0,-999.0,12,0.00,,,-99.99,,2013-10-06 16:00:00,
2013-10-06 09:43:00,77.0,22.0,-100.00,ESE,102,8.0,-999.0,12,0.00,,,-99.99,,2013-10-06 16:43:00,
2013-10-06 09:53:00,77.0,22.0,-100.00,ESE,102,8.0,-999.0,12,0.00,,,-99.99,,2013-10-06 16:53:00,
2013-10-06 10:00:00,83.0,19.0,-100.00,East,82,15.0,-999.0,9,0.00,,,-99.99,,2013-10-06 17:00:00,
2013-10-06 10:42:00,83.0,19.0,-100.00,East,82,15.0,-999.0,9,0.00,,,-99.99,,2013-10-06 17:42:00,
2013-10-06 10:52:00,83.0,19.0,-100.00,East,82,15.0,-999.0,9,0.00,,,-99.99,,2013-10-06 17:52:00,
2013-10-06 11:00:00,87.0,18.0,-100.00,ENE,75,13.0,-999.0,8,0.00,,,-99.99,,2013-10-06 18:00:00,
2013-10-06 11:43:00,87.0,18.0,-100.00,ENE,75,13.0,-999.0,8,0.00,,,-99.99,,2013-10-06 18:43:00,
2013-10-06 11:52:00,87.0,18.0,-100.00,ENE,75,13.0,-999.0,8,0.00,,,-99.99,,2013-10-06 18:52:00,
2013-10-06 12:00:00,90.0,17.0,-100.00,East,89,10.0,-999.0,7,0.00,,,-99.99,,2013-10-06 19:00:00,
2013-10-06 12:42:00,90.0,17.0,-100.00,East,89,10.0,-999.0,7,0.00,,,-99.99,,2013-10-06 19:42:00,
2013-10-06 12:52:00,90.0,17.0,-100.00,East,89,10.0,-999.0,7,0.00,,,-99.99,,2013-10-06 19:52:00,
2013-10-06 13:00:00,91.0,17.0,-100.00,NE,49,5.0,-999.0,6,0.00,,,-99.99,,2013-10-06 20:00:00,
2013-10-06 13:42:00,91.0,17.0,-100.00,NE,49,5.0,-999.0,6,0.00,,,-99.99,,2013-10-06 20:42:00,
2013-10-06 13:52:00,91.0,17.0,-100.00,NE,49,5.0,-999.0,6,0.00,,,-99.99,,2013-10-06 20:52:00,
2013-10-06 14:00:00,91.0,26.0,-100.00,WSW,237,3.0,-999.0,9,0.00,,,-99.99,,2013-10-06 21:00:00,
2013-10-06 14:44:00,91.0,26.0,-100.00,WSW,237,3.0,-999.0,9,0.00,,,-99.99,,2013-10-06 21:44:00,
2013-10-06 14:54:00,91.0,26.0,-100.00,WSW,237,3.0,-999.0,9,0.00,,,-99.99,,2013-10-06 21:54:00,
2013-10-06 15:00:00,89.0,35.0,-100.00,SW,221,6.0,-999.0,15,0.00,,,-99.99,,2013-10-06 22:00:00,
2013-10-06 15:43:00,89.0,35.0,-100.00,SW,221,6.0,-999.0,15,0.00,,,-99.99,,2013-10-06 22:43:00,
2013-10-06 15:53:00,89.0,35.0,-100.00,SW,221,6.0,-999.0,15,0.00,,,-99.99,,2013-10-06 22:53:00,
2013-10-06 16:00:00,86.0,31.0,-100.00,WSW,257,4.0,-999.0,13,0.00,,,-99.99,,2013-10-06 23:00:00,
2013-10-06 16:42:00,86.0,31.0,-100.00,WSW,257,4.0,-999.0,13,0.00,,,-99.99,,2013-10-06 23:42:00,
2013-10-06 16:53:00,86.0,31.0,-100.00,WSW,257,4.0,-999.0,13,0.00,,,-99.99,,2013-10-06 23:53:00,
2013-10-06 17:00:00,87.0,27.0,-100.00,West,269,3.0,-999.0,11,0.00,,,-99.99,,2013-10-07 00:00:00,
2013-10-06 17:42:00,87.0,27.0,-100.00,West,269,3.0,-999.0,11,0.00,,,-99.99,,2013-10-07 00:42:00,
2013-10-06 17:52:00,87.0,27.0,-100.00,West,269,3.0,-999.0,11,0.00,,,-99.99,,2013-10-07 00:52:00,
2013-10-06 18:00:00,81.0,37.0,-100.00,SW,219,3.0,-999.0,20,0.00,,,-99.99,,2013-10-07 01:00:00,
2013-10-06 18:42:00,81.0,37.0,-100.00,SW,219,3.0,-999.0,20,0.00,,,-99.99,,2013-10-07 01:42:00,
2013-10-06 18:53:00,81.0,37.0,-100.00,SW,219,3.0,-999.0,20,0.00,,,-99.99,,2013-10-07 01:53:00,
2013-10-06 19:00:00,71.0,42.0,-100.00,South,178,2.0,-999.0,35,0.00,,,-99.99,,2013-10-07 02:00:00,
2013-10-06 19:42:00,71.0,42.0,-100.00,South,178,2.0,-999.0,35,0.00,,,-99.99,,2013-10-07 02:42:00,
2013-10-06 19:53:00,71.0,42.0,-100.00,South,178,2.0,-999.0,35,0.00,,,-99.99,,2013-10-07 02:53:00,
2013-10-06 20:00:00,64.0,44.0,-100.00,East,96,4.0,-999.0,48,0.00,,,-99.99,,2013-10-07 03:00:00,
2013-10-06 20:44:00,64.0,44.0,-100.00,East,96,4.0,-999.0,48,0.00,,,-99.99,,2013-10-07 03:44:00,
2013-10-06 20:54:00,64.0,44.0,-100.00,East,96,4.0,-999.0,48,0.00,,,-99.99,,2013-10-07 03:54:00,
2013-10-06 21:00:00,61.0,41.0,-100.00,NE,50,2.0,-999.0,47,0.00,,,-99.99,,2013-10-07 04:00:00,
2013-10-06 21:44:00,61.0,41.0,-100.00,NE,50,2.0,-999.0,47,0.00,,,-99.99,,2013-10-07 04:44:00,
2013-10-06 21:53:00,61.0,41.0,-100.00,NE,50,2.0,-999.0,47,0.00,,,-99.99,,2013-10-07 04:53:00,
2013-10-06 22:00:00,61.0,43.0,-100.00,ENE,71,4.0,-999.0,50,0.00,,,-99.99,,2013-10-07 05:00:00,
2013-10-06 22:43:00,61.0,43.0,-100.00,ENE,71,4.0,-999.0,50,0.00,,,-99.99,,2013-10-07 05:43:00,
2013-10-06 22:52:00,61.0,43.0,-100.00,ENE,71,4.0,-999.0,50,0.00,,,-99.99,,2013-10-07 05:52:00,
2013-10-06 23:00:00,59.0,40.0,-100.00,NNE,17,1.0,-999.0,48,0.00,,,-99.99,,2013-10-07 06:00:00,
2013-10-06 23:42:00,59.0,40.0,-100.00,NNE,17,1.0,-999.0,48,0.00,,,-99.99,,2013-10-07 06:42:00,
2013-10-06 23:52:00,59.0,40.0,-100.00,NNE,17,1.0,-999.0,48,0.00,,,-99.99,,2013-10-07 06:52:00,